Location: Pianadetto
(44.4000°N, 10.1000°E)
Time: 22:10:14
(UTC+00:00)

NOSS 0 Rocket - Pass Details

Date: 26 May 2022
Orbit: 936 x 954 km, 70.0° (Epoch: 04 July)

Event Time Altitude Azimuth Distance (km) Brightness Sun altitude
Exits shadow 00:29:23 39° 233° (SW) 1,395 4.4 -22.4°
Maximum altitude 00:31:43 65° 300° (WNW) 1,043 4.1 -22.3°
Drops below altitude 10° 00:37:56 10° 22° (NNE) 2,689 7.5 -21.9°
Sets 00:40:30 0° 26° (NNE) 3,636 8.5 -21.8°
